Time,TemperatureF,DewpointF,PressureIn,WindDirection,WindDirectionDegrees,WindSpeedMPH,WindSpeedGustMPH,Humidity,HourlyPrecipIn,Conditions,Clouds,dailyrainin,SoftwareType,DateUTC
2013-09-20 00:01:00,84.0,38.7,29.66,WNW,297,4.0,10.0,20,0.00,,---,0.00,VWS V14.00,2013-09-20 07:01:00,
2013-09-20 00:08:00,83.8,39.7,29.66,WNW,297,2.0,6.0,21,0.00,,---,0.00,VWS V14.00,2013-09-20 07:08:00,
2013-09-20 00:13:00,83.9,38.6,29.66,WNW,297,4.0,8.0,20,0.00,,---,0.00,VWS V14.00,2013-09-20 07:13:00,
2013-09-20 00:18:00,84.0,41.1,29.66,WNW,297,0.0,0.0,22,0.00,,---,0.00,VWS V14.00,2013-09-20 07:18:00,
2013-09-20 00:23:00,83.7,37.1,29.66,WNW,297,0.0,0.0,19,0.00,,---,0.00,VWS V14.00,2013-09-20 07:23:00,
2013-09-20 00:28:00,83.8,35.8,29.66,WNW,297,6.0,10.0,18,0.00,,---,0.00,VWS V14.00,2013-09-20 07:28:00,
2013-09-20 00:33:00,84.5,36.4,29.66,WNW,297,1.0,7.0,18,0.00,,---,0.00,VWS V14.00,2013-09-20 07:33:00,
2013-09-20 00:38:00,84.5,37.8,29.66,WNW,297,0.0,0.0,19,0.00,,---,0.00,VWS V14.00,2013-09-20 07:38:00,
2013-09-20 00:43:00,84.2,37.5,29.66,WNW,297,0.0,0.0,19,0.00,,---,0.00,VWS V14.00,2013-09-20 07:43:00,
2013-09-20 00:48:00,84.0,37.3,29.65,WNW,297,0.0,0.0,19,0.00,,---,0.00,VWS V14.00,2013-09-20 07:48:00,
2013-09-20 00:53:00,84.1,34.6,29.65,WNW,297,0.0,7.0,17,0.00,,---,0.00,VWS V14.00,2013-09-20 07:53:00,
2013-09-20 00:58:00,83.9,38.6,29.65,WNW,297,0.0,8.0,20,0.00,,---,0.00,VWS V14.00,2013-09-20 07:58:00,
2013-09-20 01:03:00,83.5,34.1,29.65,WNW,297,2.0,2.0,17,0.00,,---,0.00,VWS V14.00,2013-09-20 08:03:00,
2013-09-20 01:08:00,83.8,32.9,29.65,WNW,297,10.0,14.0,16,0.00,,---,0.00,VWS V14.00,2013-09-20 08:08:00,
2013-09-20 01:13:00,84.4,33.3,29.65,WNW,297,9.0,12.0,16,0.00,,---,0.00,VWS V14.00,2013-09-20 08:13:00,
2013-09-20 01:18:00,84.9,33.8,29.65,WNW,297,7.0,15.0,16,0.00,,---,0.00,VWS V14.00,2013-09-20 08:18:00,
2013-09-20 01:23:00,85.2,34.0,29.65,WNW,297,2.0,10.0,16,0.00,,---,0.00,VWS V14.00,2013-09-20 08:23:00,
2013-09-20 01:28:00,84.7,33.6,29.65,WNW,297,7.0,9.0,16,0.00,,---,0.00,VWS V14.00,2013-09-20 08:28:00,
2013-09-20 01:33:00,84.0,34.5,29.65,WNW,297,3.0,8.0,17,0.00,,---,0.00,VWS V14.00,2013-09-20 08:33:00,
2013-09-20 01:38:00,83.6,34.2,29.65,WNW,297,7.0,10.0,17,0.00,,---,0.00,VWS V14.00,2013-09-20 08:38:00,
2013-09-20 01:43:00,83.7,34.3,29.65,WNW,297,0.0,6.0,17,0.00,,---,0.00,VWS V14.00,2013-09-20 08:43:00,
2013-09-20 01:49:00,83.7,34.3,29.65,WNW,297,3.0,10.0,17,0.00,,---,0.00,VWS V14.00,2013-09-20 08:49:00,
2013-09-20 01:54:00,83.8,35.8,29.65,WNW,297,3.0,10.0,18,0.00,,---,0.00,VWS V14.00,2013-09-20 08:54:00,
2013-09-20 01:59:00,83.8,34.4,29.65,WNW,297,0.0,11.0,17,0.00,,---,0.00,VWS V14.00,2013-09-20 08:59:00,
2013-09-20 02:04:00,84.1,34.6,29.65,NW,304,3.0,17.0,17,0.00,,---,0.00,VWS V14.00,2013-09-20 09:04:00,
2013-09-20 02:09:00,84.0,38.7,29.65,NW,304,0.0,6.0,20,0.00,,---,0.00,VWS V14.00,2013-09-20 09:09:00,
2013-09-20 02:14:00,83.1,40.4,29.64,NW,304,0.0,0.0,22,0.00,,---,0.00,VWS V14.00,2013-09-20 09:14:00,
2013-09-20 02:19:00,82.1,40.7,29.64,NW,304,0.0,0.0,23,0.00,,---,0.00,VWS V14.00,2013-09-20 09:19:00,
2013-09-20 02:24:00,81.5,40.2,29.64,NW,304,4.0,6.0,23,0.00,,---,0.00,VWS V14.00,2013-09-20 09:24:00,
2013-09-20 02:29:00,80.5,39.3,29.64,NW,304,8.0,10.0,23,0.00,,---,0.00,VWS V14.00,2013-09-20 09:29:00,
2013-09-20 02:34:00,80.0,41.1,29.64,NW,304,9.0,13.0,25,0.00,,---,0.00,VWS V14.00,2013-09-20 09:34:00,
2013-09-20 02:39:00,79.7,40.8,29.64,NW,304,7.0,12.0,25,0.00,,---,0.00,VWS V14.00,2013-09-20 09:39:00,
2013-09-20 02:44:00,79.4,40.5,29.64,NW,304,6.0,9.0,25,0.00,,---,0.00,VWS V14.00,2013-09-20 09:44:00,
2013-09-20 02:49:00,79.4,40.5,29.64,NW,304,4.0,9.0,25,0.00,,---,0.00,VWS V14.00,2013-09-20 09:49:00,
2013-09-20 02:54:00,79.4,39.5,29.64,NW,304,7.0,12.0,24,0.00,,---,0.00,VWS V14.00,2013-09-20 09:54:00,
2013-09-20 02:59:00,79.8,38.8,29.64,NW,304,3.0,8.0,23,0.00,,---,0.00,VWS V14.00,2013-09-20 09:59:00,
2013-09-20 03:04:00,80.0,37.8,29.64,NW,304,0.0,6.0,22,0.00,,---,0.00,VWS V14.00,2013-09-20 10:04:00,
2013-09-20 03:09:00,79.9,37.7,29.64,NW,304,4.0,7.0,22,0.00,,---,0.00,VWS V14.00,2013-09-20 10:09:00,
2013-09-20 03:14:00,80.8,34.7,29.64,NW,304,4.0,12.0,19,0.00,,---,0.00,VWS V14.00,2013-09-20 10:14:00,
2013-09-20 03:19:00,81.6,34.0,29.64,NW,304,5.0,8.0,18,0.00,,---,0.00,VWS V14.00,2013-09-20 10:19:00,
2013-09-20 03:24:00,81.6,34.0,29.64,NW,304,0.0,10.0,18,0.00,,---,0.00,VWS V14.00,2013-09-20 10:24:00,
2013-09-20 03:29:00,81.3,36.4,29.64,NW,304,0.0,11.0,20,0.00,,---,0.00,VWS V14.00,2013-09-20 10:29:00,
2013-09-20 03:34:00,80.5,35.8,29.64,NW,304,0.0,6.0,20,0.00,,---,0.00,VWS V14.00,2013-09-20 10:34:00,
2013-09-20 03:39:00,80.1,36.7,29.64,NW,304,8.0,12.0,21,0.00,,---,0.00,VWS V14.00,2013-09-20 10:39:00,
2013-09-20 03:44:00,80.1,36.7,29.64,NW,304,0.0,8.0,21,0.00,,---,0.00,VWS V14.00,2013-09-20 10:44:00,
2013-09-20 03:49:00,80.3,33.0,29.64,NW,304,0.0,8.0,18,0.00,,---,0.00,VWS V14.00,2013-09-20 10:49:00,
2013-09-20 03:54:00,80.1,34.2,29.64,NW,304,0.0,0.0,19,0.00,,---,0.00,VWS V14.00,2013-09-20 10:54:00,
2013-09-20 03:59:00,79.6,33.8,29.64,NW,304,4.0,7.0,19,0.00,,---,0.00,VWS V14.00,2013-09-20 10:59:00,
2013-09-20 04:04:00,79.7,33.8,29.64,NW,304,0.0,4.0,19,0.00,,---,0.00,VWS V14.00,2013-09-20 11:04:00,
2013-09-20 04:09:00,79.8,33.9,29.64,NW,304,0.0,8.0,19,0.00,,---,0.00,VWS V14.00,2013-09-20 11:09:00,
2013-09-20 04:14:00,80.2,32.9,29.64,NW,304,6.0,6.0,18,0.00,,---,0.00,VWS V14.00,2013-09-20 11:14:00,
2013-09-20 04:19:00,80.6,34.6,29.64,NW,304,6.0,7.0,19,0.00,,---,0.00,VWS V14.00,2013-09-20 11:19:00,
2013-09-20 04:24:00,81.1,33.6,29.64,NW,304,0.0,10.0,18,0.00,,---,0.00,VWS V14.00,2013-09-20 11:24:00,
2013-09-20 04:29:00,81.8,34.2,29.64,NW,304,0.0,12.0,18,0.00,,---,0.00,VWS V14.00,2013-09-20 11:29:00,
2013-09-20 04:34:00,82.2,34.5,29.64,NW,304,0.0,0.0,18,0.00,,---,0.00,VWS V14.00,2013-09-20 11:34:00,
2013-09-20 04:39:00,82.3,34.6,29.64,NW,304,6.0,12.0,18,0.00,,---,0.00,VWS V14.00,2013-09-20 11:39:00,
2013-09-20 04:44:00,82.8,33.6,29.64,NW,304,3.0,12.0,17,0.00,,---,0.00,VWS V14.00,2013-09-20 11:44:00,
2013-09-20 04:49:00,82.6,31.9,29.64,NW,304,4.0,10.0,16,0.00,,---,0.00,VWS V14.00,2013-09-20 11:49:00,
2013-09-20 04:54:00,81.9,32.8,29.64,NW,304,6.0,12.0,17,0.00,,---,0.00,VWS V14.00,2013-09-20 11:54:00,
2013-09-20 04:59:00,81.2,33.7,29.64,NW,304,3.0,6.0,18,0.00,,---,0.00,VWS V14.00,2013-09-20 11:59:00,
2013-09-20 05:04:00,81.4,33.9,29.64,NW,304,0.0,10.0,18,0.00,,---,0.00,VWS V14.00,2013-09-20 12:04:00,
2013-09-20 05:09:00,81.1,32.2,29.64,NW,304,6.0,10.0,17,0.00,,---,0.00,VWS V14.00,2013-09-20 12:09:00,
2013-09-20 05:14:00,80.9,32.0,29.64,NW,304,10.0,11.0,17,0.00,,---,0.00,VWS V14.00,2013-09-20 12:14:00,
2013-09-20 05:19:00,80.2,34.2,29.64,NW,304,10.0,12.0,19,0.00,,---,0.00,VWS V14.00,2013-09-20 12:19:00,
2013-09-20 05:24:00,79.3,36.0,29.64,NW,304,6.0,12.0,21,0.00,,---,0.00,VWS V14.00,2013-09-20 12:24:00,
2013-09-20 05:29:00,78.7,36.7,29.64,NW,304,9.0,13.0,22,0.00,,---,0.00,VWS V14.00,2013-09-20 12:29:00,
2013-09-20 05:34:00,78.6,36.6,29.65,NW,304,9.0,13.0,22,0.00,,---,0.00,VWS V14.00,2013-09-20 12:34:00,
2013-09-20 05:39:00,78.3,37.5,29.65,NW,304,10.0,14.0,23,0.00,,---,0.00,VWS V14.00,2013-09-20 12:39:00,
2013-09-20 05:44:00,78.3,36.4,29.65,NW,304,4.0,12.0,22,0.00,,---,0.00,VWS V14.00,2013-09-20 12:44:00,
2013-09-20 05:49:00,78.5,36.5,29.65,NW,304,11.0,11.0,22,0.00,,---,0.00,VWS V14.00,2013-09-20 12:49:00,
2013-09-20 05:54:00,78.9,35.7,29.65,NW,304,5.0,9.0,21,0.00,,---,0.00,VWS V14.00,2013-09-20 12:54:00,
2013-09-20 05:59:00,79.2,35.9,29.65,NW,304,8.0,9.0,21,0.00,,---,0.00,VWS V14.00,2013-09-20 12:59:00,
2013-09-20 06:04:00,79.6,35.0,29.65,NW,304,4.0,11.0,20,0.00,,---,0.00,VWS V14.00,2013-09-20 13:04:00,
2013-09-20 06:09:00,79.9,34.0,29.65,NW,304,8.0,11.0,19,0.00,,---,0.00,VWS V14.00,2013-09-20 13:09:00,
2013-09-20 06:14:00,80.1,34.2,29.66,NW,304,10.0,11.0,19,0.00,,---,0.00,VWS V14.00,2013-09-20 13:14:00,
2013-09-20 06:19:00,80.9,34.8,29.66,NW,304,6.0,16.0,19,0.00,,---,0.00,VWS V14.00,2013-09-20 13:19:00,
2013-09-20 06:24:00,81.1,35.0,29.66,NW,304,4.0,10.0,19,0.00,,---,0.00,VWS V14.00,2013-09-20 13:24:00,
2013-09-20 06:29:00,80.6,34.6,29.66,NW,304,5.0,11.0,19,0.00,,---,0.00,VWS V14.00,2013-09-20 13:29:00,
2013-09-20 06:34:00,79.8,35.2,29.66,NW,304,5.0,6.0,20,0.00,,---,0.00,VWS V14.00,2013-09-20 13:34:00,
2013-09-20 06:39:00,79.1,34.6,29.66,NW,304,0.0,6.0,20,0.00,,---,0.00,VWS V14.00,2013-09-20 13:39:00,
2013-09-20 06:44:00,79.0,34.5,29.66,NW,304,0.0,0.0,20,0.00,,---,0.00,VWS V14.00,2013-09-20 13:44:00,
2013-09-20 06:49:00,78.8,34.4,29.66,NW,304,4.0,8.0,20,0.00,,---,0.00,VWS V14.00,2013-09-20 13:49:00,
2013-09-20 06:54:00,78.3,34.0,29.66,NW,304,0.0,7.0,20,0.00,,---,0.00,VWS V14.00,2013-09-20 13:54:00,
2013-09-20 06:59:00,78.5,34.1,29.67,NW,304,6.0,10.0,20,0.00,,---,0.00,VWS V14.00,2013-09-20 13:59:00,
2013-09-20 07:04:00,80.7,34.7,29.67,NW,304,8.0,16.0,19,0.00,,---,0.00,VWS V14.00,2013-09-20 14:04:00,
2013-09-20 07:09:00,81.6,35.4,29.67,NW,304,8.0,11.0,19,0.00,,---,0.00,VWS V14.00,2013-09-20 14:09:00,
2013-09-20 07:14:00,81.9,35.6,29.67,NW,304,0.0,5.0,19,0.00,,---,0.00,VWS V14.00,2013-09-20 14:14:00,
2013-09-20 07:19:00,82.1,35.8,29.67,NW,304,0.0,0.0,19,0.00,,---,0.00,VWS V14.00,2013-09-20 14:19:00,
2013-09-20 07:24:00,82.2,35.9,29.67,NW,304,0.0,0.0,19,0.00,,---,0.00,VWS V14.00,2013-09-20 14:24:00,
2013-09-20 07:29:00,82.5,36.1,29.67,NW,304,0.0,0.0,19,0.00,,---,0.00,VWS V14.00,2013-09-20 14:29:00,
2013-09-20 07:34:00,82.8,36.4,29.67,NW,304,0.0,0.0,19,0.00,,---,0.00,VWS V14.00,2013-09-20 14:34:00,
2013-09-20 07:39:00,83.2,38.0,29.67,NW,304,0.0,0.0,20,0.00,,---,0.00,VWS V14.00,2013-09-20 14:39:00,
2013-09-20 07:44:00,83.7,38.4,29.67,NW,304,0.0,0.0,20,0.00,,---,0.00,VWS V14.00,2013-09-20 14:44:00,
2013-09-20 07:49:00,84.2,37.5,29.67,NW,304,0.0,0.0,19,0.00,,---,0.00,VWS V14.00,2013-09-20 14:49:00,
2013-09-20 07:54:00,84.5,36.4,29.67,NW,304,0.0,0.0,18,0.00,,---,0.00,VWS V14.00,2013-09-20 14:54:00,
2013-09-20 07:59:00,85.0,36.8,29.67,NW,304,0.0,0.0,18,0.00,,---,0.00,VWS V14.00,2013-09-20 14:59:00,
2013-09-20 08:04:00,85.7,37.4,29.67,NW,304,0.0,0.0,18,0.00,,---,0.00,VWS V14.00,2013-09-20 15:04:00,
2013-09-20 08:09:00,86.0,37.6,29.67,NW,304,0.0,0.0,18,0.00,,---,0.00,VWS V14.00,2013-09-20 15:09:00,
2013-09-20 08:15:00,86.3,37.8,29.67,NW,304,0.0,0.0,18,0.00,,---,0.00,VWS V14.00,2013-09-20 15:15:00,
2013-09-20 08:20:00,86.4,37.9,29.67,NW,304,0.0,0.0,18,0.00,,---,0.00,VWS V14.00,2013-09-20 15:20:00,
2013-09-20 08:25:00,86.6,36.6,29.67,NW,304,0.0,0.0,17,0.00,,---,0.00,VWS V14.00,2013-09-20 15:25:00,
2013-09-20 08:30:00,86.9,36.9,29.67,NW,304,0.0,0.0,17,0.00,,---,0.00,VWS V14.00,2013-09-20 15:30:00,
2013-09-20 08:35:00,87.1,37.0,29.68,NW,304,0.0,0.0,17,0.00,,---,0.00,VWS V14.00,2013-09-20 15:35:00,
2013-09-20 08:40:00,87.4,35.8,29.68,NW,304,0.0,0.0,16,0.00,,---,0.00,VWS V14.00,2013-09-20 15:40:00,
2013-09-20 08:45:00,87.9,37.7,29.68,NW,304,0.0,0.0,17,0.00,,---,0.00,VWS V14.00,2013-09-20 15:45:00,
2013-09-20 08:50:00,88.4,38.1,29.68,NW,304,0.0,0.0,17,0.00,,---,0.00,VWS V14.00,2013-09-20 15:50:00,
2013-09-20 08:55:00,88.8,38.4,29.68,NW,304,0.0,0.0,17,0.00,,---,0.00,VWS V14.00,2013-09-20 15:55:00,
2013-09-20 09:00:00,89.3,37.3,29.68,NW,304,0.0,3.0,16,0.00,,---,0.00,VWS V14.00,2013-09-20 16:00:00,
2013-09-20 09:05:00,89.6,39.1,29.68,NW,304,0.0,0.0,17,0.00,,---,0.00,VWS V14.00,2013-09-20 16:05:00,
2013-09-20 09:10:00,89.8,36.0,29.68,NW,304,0.0,2.0,15,0.00,,---,0.00,VWS V14.00,2013-09-20 16:10:00,
2013-09-20 09:15:00,89.9,37.8,29.68,NW,304,0.0,5.0,16,0.00,,---,0.00,VWS V14.00,2013-09-20 16:15:00,
2013-09-20 09:20:00,90.1,36.3,29.68,NW,304,0.0,6.0,15,0.00,,---,0.00,VWS V14.00,2013-09-20 16:20:00,
2013-09-20 09:25:00,90.1,37.9,29.68,NW,304,0.0,6.0,16,0.00,,---,0.00,VWS V14.00,2013-09-20 16:25:00,
2013-09-20 09:30:00,90.4,38.2,29.69,NW,304,0.0,4.0,16,0.00,,---,0.00,VWS V14.00,2013-09-20 16:30:00,
2013-09-20 09:35:00,90.9,36.9,29.69,NW,304,1.0,1.0,15,0.00,,---,0.00,VWS V14.00,2013-09-20 16:35:00,
2013-09-20 09:40:00,91.8,35.9,29.69,NW,304,0.0,0.0,14,0.00,,---,0.00,VWS V14.00,2013-09-20 16:40:00,
2013-09-20 09:45:00,92.7,38.3,29.69,NW,304,6.0,6.0,15,0.00,,---,0.00,VWS V14.00,2013-09-20 16:45:00,
2013-09-20 09:50:00,93.1,36.9,29.69,NW,304,0.0,0.0,14,0.00,,---,0.00,VWS V14.00,2013-09-20 16:50:00,
2013-09-20 09:55:00,93.5,37.2,29.69,NW,304,0.0,7.0,14,0.00,,---,0.00,VWS V14.00,2013-09-20 16:55:00,
2013-09-20 10:00:00,93.8,35.6,29.69,NW,304,3.0,11.0,13,0.00,,---,0.00,VWS V14.00,2013-09-20 17:00:00,
2013-09-20 10:05:00,93.7,35.5,29.69,NW,304,4.0,9.0,13,0.00,,---,0.00,VWS V14.00,2013-09-20 17:05:00,
2013-09-20 10:10:00,93.7,35.5,29.69,NW,304,12.0,13.0,13,0.00,,---,0.00,VWS V14.00,2013-09-20 17:10:00,
2013-09-20 10:15:00,93.4,35.3,29.69,NW,304,5.0,15.0,13,0.00,,---,0.00,VWS V14.00,2013-09-20 17:15:00,
2013-09-20 10:20:00,93.6,37.3,29.69,WNW,285,7.0,16.0,14,0.00,,---,0.00,VWS V14.00,2013-09-20 17:20:00,
2013-09-20 10:25:00,93.7,37.4,29.69,West,267,2.0,16.0,14,0.00,,---,0.00,VWS V14.00,2013-09-20 17:25:00,
2013-09-20 10:30:00,93.6,37.3,29.69,WSW,258,3.0,14.0,14,0.00,,---,0.00,VWS V14.00,2013-09-20 17:30:00,
2013-09-20 10:35:00,93.8,37.5,29.69,WSW,257,12.0,16.0,14,0.00,,---,0.00,VWS V14.00,2013-09-20 17:35:00,
2013-09-20 10:40:00,94.0,35.7,29.69,WSW,243,8.0,18.0,13,0.00,,---,0.00,VWS V14.00,2013-09-20 17:40:00,
2013-09-20 10:45:00,93.9,37.5,29.70,SW,225,15.0,16.0,14,0.00,,---,0.00,VWS V14.00,2013-09-20 17:45:00,
2013-09-20 10:50:00,93.7,37.4,29.69,SW,223,6.0,16.0,14,0.00,,---,0.00,VWS V14.00,2013-09-20 17:50:00,
2013-09-20 10:55:00,93.7,37.4,29.69,SW,221,5.0,16.0,14,0.00,,---,0.00,VWS V14.00,2013-09-20 17:55:00,
2013-09-20 11:00:00,93.8,37.5,29.69,SSW,211,7.0,18.0,14,0.00,,---,0.00,VWS V14.00,2013-09-20 18:00:00,
2013-09-20 11:05:00,94.1,39.5,29.69,SSW,211,7.0,15.0,15,0.00,,---,0.00,VWS V14.00,2013-09-20 18:05:00,
2013-09-20 11:10:00,94.4,37.9,29.69,South,171,16.0,23.0,14,0.00,,---,0.00,VWS V14.00,2013-09-20 18:10:00,
2013-09-20 11:15:00,94.6,39.8,29.69,South,171,4.0,18.0,15,0.00,,---,0.00,VWS V14.00,2013-09-20 18:15:00,
2013-09-20 11:20:00,95.2,40.3,29.69,South,171,0.0,21.0,15,0.00,,---,0.00,VWS V14.00,2013-09-20 18:20:00,
2013-09-20 11:25:00,95.3,40.4,29.69,South,171,11.0,18.0,15,0.00,,---,0.00,VWS V14.00,2013-09-20 18:25:00,
2013-09-20 11:30:00,95.4,40.5,29.69,South,171,8.0,20.0,15,0.00,,---,0.00,VWS V14.00,2013-09-20 18:30:00,
2013-09-20 11:35:00,95.6,38.9,29.69,South,171,12.0,19.0,14,0.00,,---,0.00,VWS V14.00,2013-09-20 18:35:00,
2013-09-20 11:40:00,95.7,40.7,29.69,SSE,168,22.0,23.0,15,0.00,,---,0.00,VWS V14.00,2013-09-20 18:40:00,
2013-09-20 11:45:00,95.6,42.3,29.69,SSE,168,7.0,18.0,16,0.00,,---,0.00,VWS V14.00,2013-09-20 18:45:00,
2013-09-20 11:50:00,95.5,42.2,29.69,South,169,9.0,18.0,16,0.00,,---,0.00,VWS V14.00,2013-09-20 18:50:00,
2013-09-20 11:55:00,95.6,42.3,29.69,South,169,5.0,18.0,16,0.00,,---,0.00,VWS V14.00,2013-09-20 18:55:00,
2013-09-20 12:00:00,95.4,40.5,29.69,SSE,168,5.0,20.0,15,0.00,,---,0.00,VWS V14.00,2013-09-20 19:00:00,
2013-09-20 12:05:00,95.4,40.5,29.68,SSE,167,9.0,18.0,15,0.00,,---,0.00,VWS V14.00,2013-09-20 19:05:00,
2013-09-20 12:10:00,95.8,42.5,29.68,SSE,167,10.0,19.0,16,0.00,,---,0.00,VWS V14.00,2013-09-20 19:10:00,
2013-09-20 12:15:00,95.4,42.1,29.68,SSE,166,8.0,24.0,16,0.00,,---,0.00,VWS V14.00,2013-09-20 19:15:00,
2013-09-20 12:20:00,95.1,41.9,29.68,SSE,161,11.0,20.0,16,0.00,,---,0.00,VWS V14.00,2013-09-20 19:20:00,
2013-09-20 12:25:00,95.4,42.1,29.68,SSE,161,1.0,18.0,16,0.00,,---,0.00,VWS V14.00,2013-09-20 19:25:00,
2013-09-20 12:30:00,96.0,41.0,29.68,SSE,161,11.0,20.0,15,0.00,,---,0.00,VWS V14.00,2013-09-20 19:30:00,
2013-09-20 12:35:00,96.1,41.0,29.68,SSE,163,0.0,23.0,15,0.00,,---,0.00,VWS V14.00,2013-09-20 19:35:00,
2013-09-20 12:40:00,96.5,39.6,29.68,SSE,161,19.0,25.0,14,0.00,,---,0.00,VWS V14.00,2013-09-20 19:40:00,
2013-09-20 12:45:00,96.3,41.2,29.68,SSE,161,8.0,23.0,15,0.00,,---,0.00,VWS V14.00,2013-09-20 19:45:00,
2013-09-20 12:50:00,96.7,41.5,29.68,SSE,161,11.0,26.0,15,0.00,,---,0.00,VWS V14.00,2013-09-20 19:50:00,
2013-09-20 12:55:00,96.4,42.9,29.68,SSE,162,1.0,32.0,16,0.00,,---,0.00,VWS V14.00,2013-09-20 19:55:00,
2013-09-20 13:01:00,96.5,44.6,29.68,SSE,161,14.0,26.0,17,0.00,,---,0.00,VWS V14.00,2013-09-20 20:01:00,
2013-09-20 13:10:00,96.7,43.2,29.67,SSE,161,6.0,20.0,16,0.00,,---,0.00,VWS V14.00,2013-09-20 20:10:00,
2013-09-20 13:15:00,96.9,43.3,29.67,SSE,163,8.0,14.0,16,0.00,,---,0.00,VWS V14.00,2013-09-20 20:15:00,
2013-09-20 13:21:00,97.0,45.0,29.67,SSE,153,7.0,24.0,17,0.00,,---,0.00,VWS V14.00,2013-09-20 20:21:00,
2013-09-20 13:26:00,96.7,43.2,29.67,SSE,157,7.0,18.0,16,0.00,,---,0.00,VWS V14.00,2013-09-20 20:26:00,
2013-09-20 13:31:00,97.0,43.4,29.67,SSE,159,10.0,19.0,16,0.00,,---,0.00,VWS V14.00,2013-09-20 20:31:00,
2013-09-20 13:36:00,96.6,43.1,29.67,SSE,159,3.0,20.0,16,0.00,,---,0.00,VWS V14.00,2013-09-20 20:36:00,
2013-09-20 13:41:00,97.1,43.5,29.67,SE,146,17.0,20.0,16,0.00,,---,0.00,VWS V14.00,2013-09-20 20:41:00,
2013-09-20 13:46:00,96.8,43.3,29.66,SE,144,0.0,15.0,16,0.00,,---,0.00,VWS V14.00,2013-09-20 20:46:00,
2013-09-20 13:51:00,96.8,43.3,29.66,SSE,154,16.0,26.0,16,0.00,,---,0.00,VWS V14.00,2013-09-20 20:51:00,
2013-09-20 13:56:00,96.5,43.0,29.66,SSE,154,8.0,14.0,16,0.00,,---,0.00,VWS V14.00,2013-09-20 20:56:00,
2013-09-20 14:01:00,97.3,43.7,29.66,SSE,154,16.0,18.0,16,0.00,,---,0.00,VWS V14.00,2013-09-20 21:01:00,
2013-09-20 14:06:00,97.0,45.0,29.66,SSE,155,11.0,18.0,17,0.00,,---,0.00,VWS V14.00,2013-09-20 21:06:00,
2013-09-20 14:11:00,97.2,45.2,29.66,SSE,155,4.0,15.0,17,0.00,,---,0.00,VWS V14.00,2013-09-20 21:11:00,
2013-09-20 14:16:00,96.8,44.8,29.65,SSE,161,9.0,19.0,17,0.00,,---,0.00,VWS V14.00,2013-09-20 21:16:00,
2013-09-20 14:21:00,97.3,43.7,29.65,SSE,161,8.0,17.0,16,0.00,,---,0.00,VWS V14.00,2013-09-20 21:21:00,
2013-09-20 14:26:00,97.4,43.7,29.65,SSE,161,4.0,16.0,16,0.00,,---,0.00,VWS V14.00,2013-09-20 21:26:00,
2013-09-20 14:31:00,97.6,42.2,29.65,SSE,161,1.0,19.0,15,0.00,,---,0.00,VWS V14.00,2013-09-20 21:31:00,
2013-09-20 14:36:00,97.7,42.3,29.65,SSE,161,11.0,24.0,15,0.00,,---,0.00,VWS V14.00,2013-09-20 21:36:00,
2013-09-20 14:41:00,97.7,40.5,29.65,SSE,161,10.0,18.0,14,0.00,,---,0.00,VWS V14.00,2013-09-20 21:41:00,
2013-09-20 14:46:00,97.3,40.2,29.65,SSE,161,0.0,15.0,14,0.00,,---,0.00,VWS V14.00,2013-09-20 21:46:00,
2013-09-20 14:51:00,97.9,42.5,29.65,SSE,161,3.0,14.0,15,0.00,,---,0.00,VWS V14.00,2013-09-20 21:51:00,
2013-09-20 14:56:00,98.1,42.6,29.65,SSE,161,12.0,12.0,15,0.00,,---,0.00,VWS V14.00,2013-09-20 21:56:00,
2013-09-20 15:01:00,97.6,42.2,29.64,SSE,161,7.0,13.0,15,0.00,,---,0.00,VWS V14.00,2013-09-20 22:01:00,
2013-09-20 15:06:00,97.8,42.4,29.64,SSE,161,0.0,13.0,15,0.00,,---,0.00,VWS V14.00,2013-09-20 22:06:00,
2013-09-20 15:11:00,98.0,42.5,29.64,SSE,161,7.0,12.0,15,0.00,,---,0.00,VWS V14.00,2013-09-20 22:11:00,
2013-09-20 15:16:00,98.1,42.6,29.64,SSE,161,2.0,11.0,15,0.00,,---,0.00,VWS V14.00,2013-09-20 22:16:00,
2013-09-20 15:21:00,98.3,42.8,29.64,SSE,161,9.0,14.0,15,0.00,,---,0.00,VWS V14.00,2013-09-20 22:21:00,
2013-09-20 15:26:00,98.7,43.1,29.64,SSE,161,10.0,15.0,15,0.00,,---,0.00,VWS V14.00,2013-09-20 22:26:00,
2013-09-20 15:31:00,98.3,42.8,29.64,SSE,161,5.0,13.0,15,0.00,,---,0.00,VWS V14.00,2013-09-20 22:31:00,
2013-09-20 15:36:00,98.0,42.5,29.64,SSE,161,11.0,17.0,15,0.00,,---,0.00,VWS V14.00,2013-09-20 22:36:00,
2013-09-20 15:41:00,98.0,42.5,29.63,SSE,161,2.0,12.0,15,0.00,,---,0.00,VWS V14.00,2013-09-20 22:41:00,
2013-09-20 15:46:00,98.4,42.8,29.63,SSE,161,8.0,14.0,15,0.00,,---,0.00,VWS V14.00,2013-09-20 22:46:00,
2013-09-20 15:51:00,97.8,42.4,29.63,SSE,161,1.0,13.0,15,0.00,,---,0.00,VWS V14.00,2013-09-20 22:51:00,
2013-09-20 15:56:00,98.1,47.4,29.63,South,173,12.0,18.0,18,0.00,,---,0.00,VWS V14.00,2013-09-20 22:56:00,
2013-09-20 16:01:00,97.6,47.0,29.63,SSW,211,7.0,19.0,18,0.00,,---,0.00,VWS V14.00,2013-09-20 23:01:00,
2013-09-20 16:06:00,97.1,46.6,29.63,West,278,20.0,34.0,18,0.00,,---,0.00,VWS V14.00,2013-09-20 23:06:00,
2013-09-20 16:11:00,96.6,47.6,29.63,West,281,28.0,33.0,19,0.00,,---,0.00,VWS V14.00,2013-09-20 23:11:00,
2013-09-20 16:16:00,96.3,47.4,29.62,WNW,296,23.0,23.0,19,0.00,,---,0.00,VWS V14.00,2013-09-20 23:16:00,
2013-09-20 16:21:00,95.7,46.9,29.62,WNW,287,30.0,37.0,19,0.00,,---,0.00,VWS V14.00,2013-09-20 23:21:00,
2013-09-20 16:26:00,95.1,47.8,29.63,West,277,21.0,40.0,20,0.00,,---,0.00,VWS V14.00,2013-09-20 23:26:00,
2013-09-20 16:31:00,94.8,47.5,29.62,WNW,292,22.0,36.0,20,0.00,,---,0.00,VWS V14.00,2013-09-20 23:31:00,
2013-09-20 16:36:00,94.7,47.4,29.62,West,275,18.0,45.0,20,0.00,,---,0.00,VWS V14.00,2013-09-20 23:36:00,
2013-09-20 16:41:00,94.3,47.1,29.62,WNW,296,33.0,46.0,20,0.00,,---,0.00,VWS V14.00,2013-09-20 23:41:00,
2013-09-20 16:46:00,94.1,45.6,29.63,WNW,302,36.0,42.0,19,0.00,,---,0.00,VWS V14.00,2013-09-20 23:46:00,
2013-09-20 16:51:00,93.9,45.4,29.62,WNW,292,21.0,39.0,19,0.00,,---,0.00,VWS V14.00,2013-09-20 23:51:00,
2013-09-20 16:56:00,93.4,47.7,29.62,NW,309,22.0,41.0,21,0.00,,---,0.00,VWS V14.00,2013-09-20 23:56:00,
2013-09-20 17:01:00,93.4,47.7,29.63,NNW,328,27.0,37.0,21,0.00,,---,0.00,VWS V14.00,2013-09-21 00:01:00,
2013-09-20 17:06:00,93.0,46.0,29.63,North,360,19.0,38.0,20,0.00,,---,0.00,VWS V14.00,2013-09-21 00:06:00,
2013-09-20 17:11:00,93.3,46.3,29.62,WNW,292,27.0,37.0,20,0.00,,---,0.00,VWS V14.00,2013-09-21 00:11:00,
2013-09-20 17:16:00,92.9,46.0,29.62,WNW,299,31.0,41.0,20,0.00,,---,0.00,VWS V14.00,2013-09-21 00:16:00,
2013-09-20 17:21:00,92.4,46.8,29.62,WNW,284,21.0,38.0,21,0.00,,---,0.00,VWS V14.00,2013-09-21 00:21:00,
2013-09-20 17:26:00,92.2,46.7,29.62,WNW,298,12.0,34.0,21,0.00,,---,0.00,VWS V14.00,2013-09-21 00:26:00,
2013-09-20 17:31:00,92.0,45.2,29.62,NW,309,36.0,39.0,20,0.00,,---,0.00,VWS V14.00,2013-09-21 00:31:00,
2013-09-20 17:36:00,91.7,45.0,29.62,WNW,292,15.0,38.0,20,0.00,,---,0.00,VWS V14.00,2013-09-21 00:36:00,
2013-09-20 17:41:00,91.9,45.1,29.62,WNW,298,27.0,34.0,20,0.00,,---,0.00,VWS V14.00,2013-09-21 00:41:00,
2013-09-20 17:46:00,91.4,44.7,29.62,WNW,292,16.0,34.0,20,0.00,,---,0.00,VWS V14.00,2013-09-21 00:46:00,
2013-09-20 17:51:00,91.1,45.8,29.62,NW,315,19.0,33.0,21,0.00,,---,0.00,VWS V14.00,2013-09-21 00:51:00,
2013-09-20 17:56:00,90.5,46.5,29.62,NW,324,32.0,38.0,22,0.00,,---,0.00,VWS V14.00,2013-09-21 00:56:00,
2013-09-20 18:01:00,89.9,46.0,29.62,NW,307,31.0,40.0,22,0.00,,---,0.00,VWS V14.00,2013-09-21 01:01:00,
2013-09-20 18:06:00,89.5,45.7,29.62,NW,313,30.0,36.0,22,0.00,,---,0.00,VWS V14.00,2013-09-21 01:06:00,
2013-09-20 18:11:00,89.3,45.5,29.62,NW,313,26.0,28.0,22,0.00,,---,0.00,VWS V14.00,2013-09-21 01:11:00,
2013-09-20 18:16:00,89.2,45.4,29.62,WNW,292,27.0,36.0,22,0.00,,---,0.00,VWS V14.00,2013-09-21 01:16:00,
2013-09-20 18:21:00,88.8,45.1,29.62,NW,304,29.0,29.0,22,0.00,,---,0.00,VWS V14.00,2013-09-21 01:21:00,
2013-09-20 18:26:00,88.5,46.0,29.62,NW,318,34.0,34.0,23,0.00,,---,0.00,VWS V14.00,2013-09-21 01:26:00,
2013-09-20 18:31:00,88.2,45.8,29.62,WNW,288,32.0,36.0,23,0.00,,---,0.00,VWS V14.00,2013-09-21 01:31:00,
2013-09-20 18:36:00,87.8,45.4,29.63,NW,308,18.0,37.0,23,0.00,,---,0.00,VWS V14.00,2013-09-21 01:36:00,
2013-09-20 18:42:00,87.6,45.3,29.63,NW,325,32.0,43.0,23,0.00,,---,0.00,VWS V14.00,2013-09-21 01:42:00,
2013-09-20 18:47:00,87.3,45.0,29.63,NNW,336,26.0,30.0,23,0.00,,---,0.00,VWS V14.00,2013-09-21 01:47:00,
2013-09-20 18:52:00,87.0,45.9,29.63,NW,304,31.0,31.0,24,0.00,,---,0.00,VWS V14.00,2013-09-21 01:52:00,
2013-09-20 18:57:00,86.7,46.7,29.63,NW,310,20.0,23.0,25,0.00,,---,0.00,VWS V14.00,2013-09-21 01:57:00,
2013-09-20 19:02:00,86.4,47.5,29.63,NW,311,26.0,29.0,26,0.00,,---,0.00,VWS V14.00,2013-09-21 02:02:00,
2013-09-20 19:07:00,86.3,47.4,29.63,North,360,22.0,30.0,26,0.00,,---,0.00,VWS V14.00,2013-09-21 02:07:00,
2013-09-20 19:12:00,86.0,48.2,29.63,NW,312,24.0,36.0,27,0.00,,---,0.00,VWS V14.00,2013-09-21 02:12:00,
2013-09-20 19:17:00,86.0,48.2,29.63,NW,304,25.0,37.0,27,0.00,,---,0.00,VWS V14.00,2013-09-21 02:17:00,
2013-09-20 19:22:00,85.9,48.1,29.63,NW,306,32.0,40.0,27,0.00,,---,0.00,VWS V14.00,2013-09-21 02:22:00,
2013-09-20 19:27:00,85.6,47.8,29.64,WNW,288,34.0,37.0,27,0.00,,---,0.00,VWS V14.00,2013-09-21 02:27:00,
2013-09-20 19:32:00,85.5,47.7,29.64,NW,319,26.0,26.0,27,0.00,,---,0.00,VWS V14.00,2013-09-21 02:32:00,
2013-09-20 19:37:00,85.4,48.6,29.64,WNW,303,30.0,34.0,28,0.00,,---,0.00,VWS V14.00,2013-09-21 02:37:00,
2013-09-20 19:42:00,85.1,49.3,29.64,NW,304,18.0,25.0,29,0.00,,---,0.00,VWS V14.00,2013-09-21 02:42:00,
2013-09-20 19:47:00,84.8,50.0,29.64,WNW,286,18.0,24.0,30,0.00,,---,0.00,VWS V14.00,2013-09-21 02:47:00,
2013-09-20 19:52:00,84.3,50.4,29.64,NW,304,24.0,28.0,31,0.00,,---,0.00,VWS V14.00,2013-09-21 02:52:00,
2013-09-20 19:57:00,84.3,50.4,29.64,WNW,300,24.0,24.0,31,0.00,,---,0.00,VWS V14.00,2013-09-21 02:57:00,
2013-09-20 20:02:00,84.0,51.8,29.65,WNW,294,21.0,32.0,33,0.00,,---,0.00,VWS V14.00,2013-09-21 03:02:00,
2013-09-20 20:07:00,83.8,50.8,29.65,North,360,16.0,23.0,32,0.00,,---,0.00,VWS V14.00,2013-09-21 03:07:00,
2013-09-20 20:12:00,83.5,51.4,29.65,WNW,288,22.0,26.0,33,0.00,,---,0.00,VWS V14.00,2013-09-21 03:12:00,
2013-09-20 20:17:00,82.8,52.4,29.65,WNW,284,28.0,32.0,35,0.00,,---,0.00,VWS V14.00,2013-09-21 03:17:00,
2013-09-20 20:22:00,82.8,51.6,29.65,WNW,302,15.0,25.0,34,0.00,,---,0.00,VWS V14.00,2013-09-21 03:22:00,
2013-09-20 20:27:00,82.7,51.5,29.65,WNW,297,31.0,31.0,34,0.00,,---,0.00,VWS V14.00,2013-09-21 03:27:00,
2013-09-20 20:32:00,82.3,52.7,29.66,NW,316,18.0,31.0,36,0.00,,---,0.00,VWS V14.00,2013-09-21 03:32:00,
2013-09-20 20:37:00,81.7,52.2,29.66,NW,323,26.0,34.0,36,0.00,,---,0.00,VWS V14.00,2013-09-21 03:37:00,
2013-09-20 20:42:00,81.8,52.3,29.66,WNW,290,35.0,40.0,36,0.00,,---,0.00,VWS V14.00,2013-09-21 03:42:00,
2013-09-20 20:47:00,81.5,51.2,29.66,WNW,295,14.0,28.0,35,0.00,,---,0.00,VWS V14.00,2013-09-21 03:47:00,
2013-09-20 20:52:00,81.7,50.6,29.66,NNW,327,28.0,36.0,34,0.00,,---,0.00,VWS V14.00,2013-09-21 03:52:00,
2013-09-20 20:57:00,81.7,51.4,29.66,WNW,295,27.0,39.0,35,0.00,,---,0.00,VWS V14.00,2013-09-21 03:57:00,
2013-09-20 21:01:00,81.3,51.8,29.66,NW,326,36.0,39.0,36,0.00,,---,0.00,VWS V14.00,2013-09-21 04:01:00,
2013-09-20 21:02:00,81.3,51.8,29.66,WNW,298,28.0,30.0,36,0.00,,---,0.00,VWS V14.00,2013-09-21 04:02:00,
2013-09-20 21:06:00,81.3,51.1,29.66,NW,315,36.0,39.0,35,0.00,,---,0.00,VWS V14.00,2013-09-21 04:06:00,
2013-09-20 21:11:00,81.1,50.9,29.67,WNW,298,27.0,44.0,35,0.00,,---,0.00,VWS V14.00,2013-09-21 04:11:00,
2013-09-20 21:12:00,81.1,50.9,29.66,NW,304,30.0,41.0,35,0.00,,---,0.00,VWS V14.00,2013-09-21 04:12:00,
2013-09-20 21:16:00,81.1,50.1,29.67,NW,304,20.0,41.0,34,0.00,,---,0.00,VWS V14.00,2013-09-21 04:16:00,
2013-09-20 21:21:00,81.0,50.0,29.67,WNW,294,30.0,38.0,34,0.00,,---,0.00,VWS V14.00,2013-09-21 04:21:00,
2013-09-20 21:26:00,81.2,49.4,29.67,NW,314,16.0,35.0,33,0.00,,---,0.00,VWS V14.00,2013-09-21 04:26:00,
2013-09-20 21:31:00,80.9,50.7,29.67,NNW,329,24.0,34.0,35,0.00,,---,0.00,VWS V14.00,2013-09-21 04:31:00,
2013-09-20 21:36:00,80.7,50.5,29.67,WNW,302,18.0,35.0,35,0.00,,---,0.00,VWS V14.00,2013-09-21 04:36:00,
2013-09-20 21:41:00,80.6,50.5,29.67,NW,306,24.0,32.0,35,0.00,,---,0.00,VWS V14.00,2013-09-21 04:41:00,
2013-09-20 21:46:00,80.5,51.1,29.67,NW,309,14.0,34.0,36,0.00,,---,0.00,VWS V14.00,2013-09-21 04:46:00,
2013-09-20 21:51:00,80.2,51.6,29.67,North,360,19.0,30.0,37,0.00,,---,0.00,VWS V14.00,2013-09-21 04:51:00,
2013-09-20 21:56:00,80.1,50.0,29.67,NW,323,18.0,34.0,35,0.00,,---,0.00,VWS V14.00,2013-09-21 04:56:00,
2013-09-20 22:01:00,80.2,50.8,29.67,NW,309,27.0,32.0,36,0.00,,---,0.00,VWS V14.00,2013-09-21 05:01:00,
2013-09-20 22:06:00,80.0,50.7,29.67,NW,320,17.0,31.0,36,0.00,,---,0.00,VWS V14.00,2013-09-21 05:06:00,
2013-09-20 22:11:00,79.9,50.6,29.67,WNW,298,17.0,30.0,36,0.00,,---,0.00,VWS V14.00,2013-09-21 05:11:00,
2013-09-20 22:16:00,79.8,50.5,29.66,NW,305,24.0,33.0,36,0.00,,---,0.00,VWS V14.00,2013-09-21 05:16:00,
2013-09-20 22:21:00,79.6,50.3,29.67,NW,309,12.0,32.0,36,0.00,,---,0.00,VWS V14.00,2013-09-21 05:21:00,
2013-09-20 22:26:00,79.3,51.5,29.67,NNW,329,20.0,25.0,38,0.00,,---,0.00,VWS V14.00,2013-09-21 05:26:00,
2013-09-20 22:31:00,78.9,51.2,29.67,NW,305,13.0,28.0,38,0.00,,---,0.00,VWS V14.00,2013-09-21 05:31:00,
2013-09-20 22:36:00,78.9,50.4,29.67,WNW,300,15.0,26.0,37,0.00,,---,0.00,VWS V14.00,2013-09-21 05:36:00,
2013-09-20 22:41:00,78.6,50.9,29.67,NW,304,16.0,20.0,38,0.00,,---,0.00,VWS V14.00,2013-09-21 05:41:00,
2013-09-20 22:46:00,78.5,50.8,29.67,NW,307,20.0,24.0,38,0.00,,---,0.00,VWS V14.00,2013-09-21 05:46:00,
2013-09-20 22:51:00,78.4,50.7,29.67,WNW,288,11.0,23.0,38,0.00,,---,0.00,VWS V14.00,2013-09-21 05:51:00,
2013-09-20 22:56:00,78.2,51.2,29.67,WNW,297,19.0,26.0,39,0.00,,---,0.00,VWS V14.00,2013-09-21 05:56:00,
2013-09-20 23:01:00,78.0,51.1,29.67,NW,315,18.0,30.0,39,0.00,,---,0.00,VWS V14.00,2013-09-21 06:01:00,
2013-09-20 23:07:00,77.7,51.5,29.67,WNW,297,9.0,22.0,40,0.00,,---,0.00,VWS V14.00,2013-09-21 06:07:00,
2013-09-20 23:12:00,77.4,51.9,29.67,NW,305,14.0,22.0,41,0.00,,---,0.00,VWS V14.00,2013-09-21 06:12:00,
2013-09-20 23:17:00,77.1,51.6,29.67,NW,319,14.0,17.0,41,0.00,,---,0.00,VWS V14.00,2013-09-21 06:17:00,
2013-09-20 23:22:00,77.0,51.5,29.67,NW,321,18.0,22.0,41,0.00,,---,0.00,VWS V14.00,2013-09-21 06:22:00,
2013-09-20 23:27:00,76.8,52.0,29.67,WNW,285,15.0,24.0,42,0.00,,---,0.00,VWS V14.00,2013-09-21 06:27:00,
2013-09-20 23:32:00,76.5,52.4,29.67,NW,308,16.0,27.0,43,0.00,,---,0.00,VWS V14.00,2013-09-21 06:32:00,
2013-09-20 23:37:00,76.2,53.3,29.67,WNW,300,18.0,27.0,45,0.00,,---,0.00,VWS V14.00,2013-09-21 06:37:00,
2013-09-20 23:42:00,76.1,53.2,29.67,WNW,287,14.0,21.0,45,0.00,,---,0.00,VWS V14.00,2013-09-21 06:42:00,
2013-09-20 23:47:00,75.8,53.6,29.67,WNW,293,16.0,20.0,46,0.00,,---,0.00,VWS V14.00,2013-09-21 06:47:00,
2013-09-20 23:52:00,75.6,53.4,29.67,WNW,289,26.0,27.0,46,0.00,,---,0.00,VWS V14.00,2013-09-21 06:52:00,
2013-09-20 23:57:00,75.5,53.3,29.67,WNW,286,10.0,16.0,46,0.00,,---,0.00,VWS V14.00,2013-09-21 06:57:00,